Station Historical Data
Daily Summary for December 1, 2017 Units:  Metric    English   Both
« Previous Day
Next Day »
Daily Weekly Monthly Yearly Custom
  High: Low: Average:
Temperature: 9.1 °C -0.1 °C 5 °C
Dew Point: 1.7 °C -2.8 °C -0.3 °C
Humidity: 83% 54% 69%
Wind Speed: 11.3km/h 0km/h 3.5km/h
Wind Gust: 22.5km/h - -
Wind- - West
Pressure: 1025.3 hPa 1017.5 hPa -
Precipitation: 0 mm    
Historical Graphs
 
 
Tabular Data for December 1, 2017
Time Temperature Dew Point Pressure Wind Wind Speed Wind Gust Humidity Rainfall Rate (Hourly)
00:04 6.2 °C 1.7 °C 1017.5 hPa WNW 11.3 km/h 17.7 km/h 73% 0 mm
00:14 6.1 °C 1.6 °C 1017.5 hPa West 6.4 km/h 14.5 km/h 73% 0 mm
00:19 6.1 °C 1.6 °C 1017.8 hPa WNW 3.2 km/h 14.5 km/h 73% 0 mm
00:24 6 °C 1.5 °C 1017.5 hPa West 6.4 km/h 11.3 km/h 73% 0 mm
00:29 6 °C 1.5 °C 1017.8 hPa West 6.4 km/h 16.1 km/h 73% 0 mm
00:34 6 °C 1.5 °C 1017.8 hPa WNW 6.4 km/h 16.1 km/h 73% 0 mm
00:39 5.9 °C 1.7 °C 1017.8 hPa West 6.4 km/h 16.1 km/h 74% 0 mm
00:44 5.9 °C 1.6 °C 1017.8 hPa West 6.4 km/h 14.5 km/h 74% 0 mm
00:54 5.9 °C 1.7 °C 1018.2 hPa West 8 km/h 17.7 km/h 74% 0 mm
00:59 5.8 °C 1.6 °C 1018.2 hPa West 8 km/h 17.7 km/h 74% 0 mm
01:04 5.8 °C 1.6 °C 1018.2 hPa West 8 km/h 16.1 km/h 74% 0 mm
01:14 5.8 °C 1.5 °C 1018.5 hPa West 4.8 km/h 14.5 km/h 74% 0 mm
01:19 5.8 °C 1.5 °C 1018.5 hPa NW 4.8 km/h 16.1 km/h 74% 0 mm
01:24 5.7 °C 1.4 °C 1018.5 hPa West 9.7 km/h 16.1 km/h 74% 0 mm
01:29 5.7 °C 1.4 °C 1018.5 hPa WNW 4.8 km/h 19.3 km/h 74% 0 mm
01:34 5.7 °C 1.4 °C 1018.5 hPa West 8 km/h 20.9 km/h 74% 0 mm
01:39 5.7 °C 1.4 °C 1018.5 hPa NW 11.3 km/h 17.7 km/h 74% 0 mm
01:44 5.6 °C 1.3 °C 1018.5 hPa West 8 km/h 20.9 km/h 74% 0 mm
01:49 5.6 °C 1.3 °C 1018.8 hPa WNW 9.7 km/h 20.9 km/h 74% 0 mm
01:54 5.6 °C 1.3 °C 1018.8 hPa WNW 9.7 km/h 17.7 km/h 74% 0 mm
01:59 5.5 °C 1.2 °C 1019.2 hPa West 8 km/h 17.7 km/h 74% 0 mm
02:04 5.5 °C 1.2 °C 1019.2 hPa West 3.2 km/h 14.5 km/h 74% 0 mm
02:09 5.5 °C 1.2 °C 1019.2 hPa West 9.7 km/h 12.9 km/h 74% 0 mm
02:14 5.5 °C 1.2 °C 1019.2 hPa WNW 6.4 km/h 19.3 km/h 74% 0 mm
02:19 5.5 °C 1.2 °C 1019.2 hPa WNW 9.7 km/h 19.3 km/h 74% 0 mm
02:24 5.5 °C 1.2 °C 1019.5 hPa WNW 8 km/h 17.7 km/h 74% 0 mm
02:34 5.5 °C 1.2 °C 1019.5 hPa WNW 8 km/h 14.5 km/h 74% 0 mm
02:39 5.5 °C 1.2 °C 1019.9 hPa WSW 3.2 km/h 14.5 km/h 74% 0 mm
02:44 5.5 °C 1.2 °C 1019.9 hPa West 4.8 km/h 16.1 km/h 74% 0 mm
02:49 5.4 °C 1.2 °C 1019.9 hPa West 8 km/h 16.1 km/h 74% 0 mm
02:59 5.3 °C 1.1 °C 1019.9 hPa West 8 km/h 22.5 km/h 74% 0 mm
03:04 5.3 °C 1.1 °C 1019.9 hPa West 9.7 km/h 22.5 km/h 74% 0 mm
03:09 5.3 °C 1 °C 1020.2 hPa West 9.7 km/h 19.3 km/h 74% 0 mm
03:14 5.2 °C 0.9 °C 1020.2 hPa West 8 km/h 19.3 km/h 74% 0 mm
03:19 5.2 °C 0.9 °C 1020.2 hPa West 8 km/h 19.3 km/h 74% 0 mm
03:24 5.2 °C 0.9 °C 1020.2 hPa West 8 km/h 14.5 km/h 74% 0 mm
03:29 5.1 °C 0.8 °C 1020.5 hPa West 8 km/h 14.5 km/h 74% 0 mm
03:34 5.1 °C 0.8 °C 1020.5 hPa West 8 km/h 14.5 km/h 74% 0 mm
03:39 5 °C 0.7 °C 1020.5 hPa West 6.4 km/h 14.5 km/h 74% 0 mm
03:44 4.9 °C 0.7 °C 1020.5 hPa West 3.2 km/h 14.5 km/h 74% 0 mm
03:49 4.9 °C 0.7 °C 1020.5 hPa West 1.6 km/h 11.3 km/h 74% 0 mm
03:54 4.9 °C 0.7 °C 1020.9 hPa West 4.8 km/h 9.7 km/h 74% 0 mm
03:59 4.9 °C 0.7 °C 1020.9 hPa WNW 4.8 km/h 9.7 km/h 74% 0 mm
04:04 4.9 °C 0.4 °C 1020.9 hPa West 4.8 km/h 9.7 km/h 73% 0 mm
04:14 4.8 °C 0.4 °C 1020.9 hPa WNW 4.8 km/h 11.3 km/h 73% 0 mm
04:19 4.9 °C 0.4 °C 1021.2 hPa WNW 6.4 km/h 11.3 km/h 73% 0 mm
04:24 4.9 °C 0.4 °C 1021.2 hPa WNW 4.8 km/h 11.3 km/h 73% 0 mm
04:29 4.8 °C 0.4 °C 1021.2 hPa West 4.8 km/h 9.7 km/h 73% 0 mm
04:34 4.8 °C 0.6 °C 1021.2 hPa West 3.2 km/h 9.7 km/h 74% 0 mm
04:39 4.8 °C 0.4 °C 1021.2 hPa WSW 4.8 km/h 9.7 km/h 73% 0 mm
04:44 4.8 °C 0.4 °C 1021.2 hPa WSW 4.8 km/h 14.5 km/h 73% 0 mm
04:49 4.8 °C 0.3 °C 1021.2 hPa Calm   8 km/h 73% 0 mm
04:54 4.8 °C 0.3 °C 1021.2 hPa WSW 3.2 km/h 4.8 km/h 73% 0 mm
04:59 4.8 °C 0.3 °C 1021.6 hPa Calm   4.8 km/h 73% 0 mm
05:04 4.7 °C 0.3 °C 1021.2 hPa WSW 1.6 km/h 4.8 km/h 73% 0 mm
05:09 4.7 °C 0.3 °C 1021.6 hPa Calm   4.8 km/h 73% 0 mm
05:14 4.7 °C 0.3 °C 1021.6 hPa Calm   8 km/h 73% 0 mm
05:24 4.7 °C 0.2 °C 1021.6 hPa West 3.2 km/h 6.4 km/h 73% 0 mm
05:29 4.6 °C 0.2 °C 1021.6 hPa WNW 4.8 km/h 6.4 km/h 73% 0 mm
05:34 4.6 °C 0.2 °C 1021.6 hPa West 4.8 km/h 11.3 km/h 73% 0 mm
05:39 4.7 °C 0.2 °C 1021.9 hPa West 4.8 km/h 11.3 km/h 73% 0 mm
05:44 4.7 °C 0.2 °C 1021.6 hPa West 4.8 km/h 8 km/h 73% 0 mm
05:49 4.7 °C 0.3 °C 1021.9 hPa West 4.8 km/h 11.3 km/h 73% 0 mm
05:54 4.7 °C 0.3 °C 1021.9 hPa Calm   8 km/h 73% 0 mm
05:59 4.7 °C 0.2 °C 1021.9 hPa Calm   4.8 km/h 73% 0 mm
06:24 4.8 °C 0.3 °C 1022.2 hPa WNW 3.2 km/h 12.9 km/h 73% 0 mm
06:29 4.8 °C 0.2 °C 1022.2 hPa West 1.6 km/h 9.7 km/h 72% 0 mm
06:34 4.8 °C 0.2 °C 1022.2 hPa West 3.2 km/h 6.4 km/h 72% 0 mm
06:39 4.8 °C 0.2 °C 1022.2 hPa West 1.6 km/h 9.7 km/h 72% 0 mm
06:44 4.8 °C 0.3 °C 1022.2 hPa West 3.2 km/h 9.7 km/h 73% 0 mm
06:54 4.5 °C 0.1 °C 1022.2 hPa Calm     73% 0 mm
06:59 4.4 °C -0.1 °C 1022.2 hPa Calm     73% 0 mm
07:14 4.2 °C -0.1 °C 1022.6 hPa Calm     74% 0 mm
07:19 4.2 °C 0 °C 1022.6 hPa Calm     74% 0 mm
07:29 4.2 °C 0 °C 1022.9 hPa Calm     74% 0 mm
07:44 4.3 °C 0.1 °C 1023.2 hPa Calm   6.4 km/h 74% 0 mm
07:49 4.4 °C 0.2 °C 1023.2 hPa WNW 1.6 km/h 6.4 km/h 74% 0 mm
07:54 4.4 °C 0.2 °C 1023.2 hPa WNW 3.2 km/h 6.4 km/h 74% 0 mm
07:59 4.5 °C 0.3 °C 1023.2 hPa WNW 3.2 km/h 8 km/h 74% 0 mm
08:09 4.6 °C 0.4 °C 1023.6 hPa West 6.4 km/h 8 km/h 74% 0 mm
08:14 4.7 °C 0.4 °C 1023.6 hPa NW 3.2 km/h 8 km/h 74% 0 mm
08:19 4.8 °C 0.6 °C 1023.6 hPa West 3.2 km/h 6.4 km/h 74% 0 mm
08:24 4.8 °C 0.6 °C 1023.6 hPa WNW 4.8 km/h 9.7 km/h 74% 0 mm
08:29 4.8 °C 0.6 °C 1023.6 hPa WNW 4.8 km/h 9.7 km/h 74% 0 mm
08:34 4.9 °C 0.7 °C 1023.9 hPa WNW 3.2 km/h 8 km/h 74% 0 mm
08:39 4.9 °C 0.5 °C 1023.9 hPa West 3.2 km/h 6.4 km/h 73% 0 mm
08:44 5 °C 0.4 °C 1023.9 hPa NW 6.4 km/h 9.7 km/h 72% 0 mm
08:49 5.1 °C 0.5 °C 1023.9 hPa NW 3.2 km/h 9.7 km/h 72% 0 mm
08:54 5.1 °C 0.3 °C 1023.9 hPa NNW 4.8 km/h 6.4 km/h 71% 0 mm
08:59 5.2 °C 0.1 °C 1023.9 hPa NNW 4.8 km/h 8 km/h 70% 0 mm
09:04 5.3 °C 0.2 °C 1023.9 hPa NNW 3.2 km/h 8 km/h 70% 0 mm
09:09 5.4 °C 0.3 °C 1023.9 hPa Calm   3.2 km/h 70% 0 mm
09:19 5.4 °C 0.2 °C 1023.9 hPa NW 3.2 km/h 6.4 km/h 69% 0 mm
09:29 5.6 °C 0.1 °C 1023.9 hPa NW 4.8 km/h 8 km/h 68% 0 mm
09:34 5.6 °C 0.2 °C 1024.3 hPa WNW 4.8 km/h 9.7 km/h 68% 0 mm
09:39 5.7 °C -0.2 °C 1024.3 hPa NW 4.8 km/h 11.3 km/h 66% 0 mm
09:44 5.8 °C 0.2 °C 1024.3 hPa NW 4.8 km/h 11.3 km/h 67% 0 mm
09:49 5.8 °C -0.1 °C 1024.3 hPa NNW 3.2 km/h 12.9 km/h 66% 0 mm
09:54 6 °C 0.1 °C 1024.3 hPa WNW 4.8 km/h 11.3 km/h 66% 0 mm
09:59 5.9 °C -0.2 °C 1024.3 hPa NW 4.8 km/h 9.7 km/h 65% 0 mm
10:04 6.2 °C -0.3 °C 1024.3 hPa NW 4.8 km/h 11.3 km/h 63% 0 mm
10:24 6.7 °C -0.8 °C 1024.3 hPa NNW 8 km/h 12.9 km/h 59% 0 mm
10:34 6.9 °C -0.3 °C 1024.3 hPa NW 4.8 km/h 11.3 km/h 60% 0 mm
10:39 7.1 °C -0.4 °C 1023.9 hPa NW 4.8 km/h 11.3 km/h 59% 0 mm
10:44 7.2 °C -0.3 °C 1024.3 hPa NW 4.8 km/h 9.7 km/h 59% 0 mm
10:54 7 °C -0.9 °C 1023.9 hPa North 4.8 km/h 14.5 km/h 57% 0 mm
10:59 7 °C -0.9 °C 1023.9 hPa NNE 6.4 km/h 14.5 km/h 57% 0 mm
11:04 7.1 °C -0.6 °C 1023.9 hPa North 4.8 km/h 14.5 km/h 58% 0 mm
11:09 7.4 °C -0.3 °C 1023.9 hPa WNW 6.4 km/h 11.3 km/h 58% 0 mm
11:19 7.3 °C -0.6 °C 1023.9 hPa NNW 3.2 km/h 12.9 km/h 57% 0 mm
11:34 7.4 °C -0.8 °C 1023.6 hPa West 1.6 km/h 11.3 km/h 56% 0 mm
11:39 7.5 °C -0.7 °C 1023.6 hPa West 4.8 km/h 11.3 km/h 56% 0 mm
11:44 7.7 °C -0.6 °C 1023.6 hPa WNW 4.8 km/h 11.3 km/h 56% 0 mm
11:54 7.6 °C -0.9 °C 1023.9 hPa WNW 4.8 km/h 11.3 km/h 55% 0 mm
11:59 7.7 °C -0.1 °C 1023.9 hPa WNW 3.2 km/h 9.7 km/h 58% 0 mm
12:04 7.7 °C -0.8 °C 1023.9 hPa WNW 3.2 km/h 11.3 km/h 55% 0 mm
12:09 7.6 °C -0.7 °C 1023.9 hPa NNW 4.8 km/h 9.7 km/h 56% 0 mm
12:24 7.8 °C -0.4 °C 1023.6 hPa West 4.8 km/h 6.4 km/h 56% 0 mm
12:29 7.3 °C -1.1 °C 1023.9 hPa Calm   8 km/h 55% 0 mm
12:34 7.4 °C -0.8 °C 1023.9 hPa NNW 1.6 km/h 8 km/h 56% 0 mm
12:39 7.8 °C -0.7 °C 1023.6 hPa WNW 3.2 km/h 9.7 km/h 55% 0 mm
12:49 8.1 °C -0.7 °C 1023.6 hPa West 4.8 km/h 12.9 km/h 54% 0 mm
12:54 8.2 °C -0.1 °C 1023.6 hPa West 4.8 km/h 12.9 km/h 56% 0 mm
12:59 7.8 °C -0.7 °C 1023.9 hPa WNW 6.4 km/h 12.9 km/h 55% 0 mm
13:04 7.4 °C -0.8 °C 1023.9 hPa West 4.8 km/h 11.3 km/h 56% 0 mm
13:09 7.3 °C -0.9 °C 1023.6 hPa West 4.8 km/h 11.3 km/h 56% 0 mm
13:14 7.2 °C -0.6 °C 1023.6 hPa WSW 3.2 km/h 9.7 km/h 58% 0 mm
13:24 7.2 °C -0.8 °C 1023.6 hPa NW 3.2 km/h 8 km/h 57% 0 mm
13:34 8.4 °C 0.1 °C 1023.6 hPa West 4.8 km/h 9.7 km/h 56% 0 mm
13:39 8.7 °C -0.1 °C 1023.6 hPa West 6.4 km/h 11.3 km/h 54% 0 mm
13:44 8.6 °C -0.2 °C 1023.6 hPa North 3.2 km/h 6.4 km/h 54% 0 mm
13:49 8.9 °C 0.3 °C 1023.6 hPa West 4.8 km/h 6.4 km/h 55% 0 mm
13:54 9.1 °C 0.2 °C 1023.6 hPa West 4.8 km/h 9.7 km/h 54% 0 mm
14:09 8.3 °C -0.4 °C 1023.6 hPa WSW 6.4 km/h 12.9 km/h 54% 0 mm
14:14 8.4 °C 0.1 °C 1023.6 hPa WSW 6.4 km/h 11.3 km/h 56% 0 mm
14:19 8.3 °C -0.5 °C 1023.9 hPa SW 8 km/h 11.3 km/h 54% 0 mm
14:24 8.2 °C -0.3 °C 1023.9 hPa WSW 6.4 km/h 12.9 km/h 55% 0 mm
14:29 8.2 °C -0.3 °C 1023.9 hPa WSW 4.8 km/h 9.7 km/h 55% 0 mm
14:44 8.3 °C -0.2 °C 1023.9 hPa South 6.4 km/h 9.7 km/h 55% 0 mm
14:49 8.3 °C -0.2 °C 1023.6 hPa SSW 4.8 km/h 14.5 km/h 55% 0 mm
14:54 8.1 °C -0.2 °C 1023.6 hPa West 4.8 km/h 9.7 km/h 56% 0 mm
14:59 8 °C -0.3 °C 1023.6 hPa SW 6.4 km/h 11.3 km/h 56% 0 mm
15:09 7.9 °C -0.3 °C 1023.9 hPa WSW 6.4 km/h 12.9 km/h 56% 0 mm
15:14 7.7 °C -0.5 °C 1023.9 hPa WSW 6.4 km/h 14.5 km/h 56% 0 mm
15:24 7.3 °C -0.4 °C 1023.9 hPa WSW 4.8 km/h 12.9 km/h 58% 0 mm
15:29 7 °C -0.7 °C 1023.9 hPa SW 6.4 km/h 11.3 km/h 58% 0 mm
15:34 6.9 °C -0.8 °C 1024.3 hPa WSW 4.8 km/h 14.5 km/h 58% 0 mm
15:39 7 °C -0.7 °C 1024.3 hPa WSW 6.4 km/h 14.5 km/h 58% 0 mm
15:44 7 °C -0.7 °C 1024.3 hPa WSW 3.2 km/h 16.1 km/h 58% 0 mm
15:49 6.9 °C -0.8 °C 1024.3 hPa SW 6.4 km/h 14.5 km/h 58% 0 mm
16:04 6.8 °C -1.1 °C 1023.9 hPa WSW 8 km/h 11.3 km/h 57% 0 mm
16:09 6.7 °C -1.2 °C 1023.9 hPa WSW 6.4 km/h 14.5 km/h 57% 0 mm
16:14 6.6 °C -1.1 °C 1023.9 hPa WSW 6.4 km/h 14.5 km/h 58% 0 mm
16:29 6.1 °C -1.1 °C 1023.9 hPa SW 8 km/h 12.9 km/h 60% 0 mm
16:34 6 °C -1.2 °C 1023.9 hPa SW 4.8 km/h 14.5 km/h 60% 0 mm
16:39 5.9 °C -1.1 °C 1023.9 hPa SW 6.4 km/h 14.5 km/h 61% 0 mm
16:44 5.7 °C -1 °C 1023.9 hPa SW 4.8 km/h 11.3 km/h 62% 0 mm
16:49 5.7 °C -1.1 °C 1023.9 hPa WSW 6.4 km/h 11.3 km/h 62% 0 mm
16:54 5.6 °C -0.9 °C 1023.9 hPa SSW 3.2 km/h 8 km/h 63% 0 mm
16:59 5.4 °C -0.8 °C 1023.9 hPa SW 3.2 km/h 6.4 km/h 64% 0 mm
17:04 5.2 °C -1.1 °C 1023.9 hPa SW 1.6 km/h 6.4 km/h 64% 0 mm
17:09 4.9 °C -1.1 °C 1024.3 hPa Calm   3.2 km/h 65% 0 mm
17:19 4.6 °C -1.3 °C 1024.3 hPa Calm   3.2 km/h 66% 0 mm
17:24 4.6 °C -1.1 °C 1024.3 hPa Calm   6.4 km/h 67% 0 mm
17:29 4.5 °C -1.1 °C 1024.3 hPa SW 1.6 km/h 6.4 km/h 67% 0 mm
17:39 4.3 °C -1.1 °C 1024.3 hPa Calm     68% 0 mm
17:44 4.2 °C -0.9 °C 1024.6 hPa Calm   3.2 km/h 69% 0 mm
17:49 4.1 °C -1.1 °C 1024.6 hPa Calm   3.2 km/h 69% 0 mm
17:54 3.9 °C -1.2 °C 1024.6 hPa Calm     69% 0 mm
17:59 3.9 °C -1.1 °C 1024.6 hPa Calm     70% 0 mm
18:04 3.9 °C -0.8 °C 1024.9 hPa Calm     71% 0 mm
18:14 3.9 °C -0.8 °C 1024.9 hPa Calm     71% 0 mm
18:19 3.8 °C -1 °C 1024.9 hPa Calm     71% 0 mm
18:24 3.8 °C -0.8 °C 1024.9 hPa Calm     72% 0 mm
18:29 3.6 °C -1 °C 1024.9 hPa Calm     72% 0 mm
18:34 3.3 °C -1.3 °C 1024.9 hPa Calm     72% 0 mm
18:39 3 °C -1.2 °C 1024.9 hPa Calm     74% 0 mm
18:44 2.9 °C -1.1 °C 1024.9 hPa Calm     75% 0 mm
18:49 2.9 °C -1.1 °C 1025.3 hPa Calm     75% 0 mm
18:54 2.7 °C -1.3 °C 1024.9 hPa Calm     75% 0 mm
18:59 2.7 °C -1.2 °C 1024.9 hPa Calm     76% 0 mm
19:04 2.6 °C -1.2 °C 1024.9 hPa Calm     76% 0 mm
19:09 2.6 °C -1.3 °C 1024.9 hPa Calm     76% 0 mm
19:14 2.7 °C -0.9 °C 1024.9 hPa Calm     77% 0 mm
19:19 2.8 °C -0.8 °C 1024.9 hPa Calm     77% 0 mm
19:24 3.1 °C -0.3 °C 1024.9 hPa Calm     78% 0 mm
19:29 2.8 °C -1 °C 1024.9 hPa Calm     76% 0 mm
19:34 2.6 °C -0.8 °C 1024.9 hPa Calm     78% 0 mm
19:39 2.8 °C -0.7 °C 1024.9 hPa Calm     78% 0 mm
19:44 2.8 °C -0.8 °C 1024.9 hPa Calm     77% 0 mm
19:49 2.7 °C -0.9 °C 1024.9 hPa Calm     77% 0 mm
19:54 2.5 °C -1.1 °C 1024.9 hPa Calm     77% 0 mm
19:59 2.3 °C -1.2 °C 1024.9 hPa Calm     78% 0 mm
20:14 2.6 °C -1.1 °C 1024.6 hPa Calm     77% 0 mm
20:19 2.6 °C -1.1 °C 1024.9 hPa Calm     77% 0 mm
20:24 2.6 °C -1.1 °C 1024.9 hPa Calm     77% 0 mm
20:29 2.4 °C -1.4 °C 1024.9 hPa Calm     76% 0 mm
20:44 2.6 °C -1.4 °C 1024.6 hPa Calm     75% 0 mm
20:49 2.7 °C -1.3 °C 1024.6 hPa Calm   4.8 km/h 75% 0 mm
20:54 2.7 °C -1.3 °C 1024.6 hPa SSE 1.6 km/h 3.2 km/h 75% 0 mm
20:59 2.7 °C -1.3 °C 1024.6 hPa Calm   3.2 km/h 75% 0 mm
21:04 2.7 °C -1.3 °C 1024.6 hPa Calm   3.2 km/h 75% 0 mm
21:14 2.3 °C -1.7 °C 1024.6 hPa Calm     75% 0 mm
21:19 2.3 °C -1.7 °C 1024.6 hPa Calm   3.2 km/h 75% 0 mm
21:24 2.1 °C -1.9 °C 1024.6 hPa Calm   3.2 km/h 75% 0 mm
21:39 1.8 °C -2 °C 1024.6 hPa Calm     76% 0 mm
22:04 1 °C -2.4 °C 1024.6 hPa Calm     78% 0 mm
22:14 0.8 °C -2.4 °C 1024.3 hPa Calm     79% 0 mm
22:24 0.7 °C -2.6 °C 1024.3 hPa Calm     79% 0 mm
22:29 0.7 °C -2.6 °C 1024.6 hPa Calm     79% 0 mm
22:34 0.7 °C -2.4 °C 1024.6 hPa Calm     80% 0 mm
22:44 0.5 °C -2.6 °C 1024.6 hPa Calm     80% 0 mm
22:59 0.2 °C -2.7 °C 1024.6 hPa Calm     81% 0 mm
23:04 0.2 °C -2.7 °C 1024.6 hPa Calm     81% 0 mm
23:09 0.1 °C -2.8 °C 1024.6 hPa Calm     81% 0 mm
23:14 0.1 °C -2.8 °C 1024.6 hPa Calm     81% 0 mm
23:19 0 °C -2.7 °C 1024.6 hPa Calm     82% 0 mm
23:29 -0.1 °C -2.8 °C 1024.6 hPa Calm     82% 0 mm
23:34 -0.1 °C -2.8 °C 1024.6 hPa Calm     82% 0 mm
23:44 0 °C -2.6 °C 1024.6 hPa Calm     83% 0 mm
23:49 0.1 °C -2.6 °C 1024.3 hPa Calm     82% 0 mm
23:54 0.1 °C -2.4 °C 1024.3 hPa Calm     83% 0 mm
Buffalo, New York, USA
Compliments of Weather Underground - 2 mb